Time,TemperatureF,DewpointF,PressureIn,WindDirection,WindDirectionDegrees,WindSpeedMPH,WindSpeedGustMPH,Humidity,HourlyPrecipIn,Conditions,Clouds,dailyrainin,SolarRadiationWatts/m^2,SoftwareType,DateUTC
2013-03-21 00:00:00,40.1,22.4,29.68,North,32767,-999.0,0.0,49,0.00,,,0.00,0,Wunderground v.1.15,2013-03-21 04:00:00,
2013-03-21 00:10:00,40.3,23.1,29.67,North,32767,-999.0,0.0,50,0.00,,,0.00,0,Wunderground v.1.15,2013-03-21 04:10:00,
2013-03-21 00:20:00,40.8,23.1,29.69,North,32767,-999.0,0.0,49,0.00,,,0.00,0,Wunderground v.1.15,2013-03-21 04:20:00,
2013-03-21 00:25:00,40.9,24.6,29.69,North,32767,-999.0,0.0,52,0.00,,,0.00,0,Wunderground v.1.15,2013-03-21 04:25:00,
2013-03-21 00:30:00,41.1,23.9,29.69,North,32767,-999.0,0.0,50,0.00,,,0.00,0,Wunderground v.1.15,2013-03-21 04:30:00,
2013-03-21 00:40:00,41.5,25.2,29.69,North,32767,-999.0,0.0,52,0.00,,,0.00,0,Wunderground v.1.15,2013-03-21 04:40:00,
2013-03-21 00:50:00,41.9,25.1,29.67,North,32767,-999.0,0.0,51,0.00,,,0.00,0,Wunderground v.1.15,2013-03-21 04:50:00,
2013-03-21 01:00:00,42.6,24.3,29.67,North,32767,-999.0,0.0,48,0.00,,,0.00,0,Wunderground v.1.15,2013-03-21 05:00:00,
2013-03-21 01:10:00,43.6,25.7,29.67,North,32767,-999.0,0.0,49,0.00,,,0.00,0,Wunderground v.1.15,2013-03-21 05:10:00,
2013-03-21 01:15:00,43.9,26.0,29.67,North,32767,-999.0,0.0,49,0.00,,,0.00,0,Wunderground v.1.15,2013-03-21 05:15:00,
2013-03-21 01:25:00,44.3,27.3,29.66,North,32767,-999.0,0.0,51,0.00,,,0.00,0,Wunderground v.1.15,2013-03-21 05:25:00,
2013-03-21 01:30:00,44.6,27.1,29.66,North,32767,-999.0,0.0,50,0.00,,,0.00,0,Wunderground v.1.15,2013-03-21 05:30:00,
2013-03-21 01:40:00,44.5,28.4,29.66,North,32767,-999.0,0.0,53,0.00,,,0.00,0,Wunderground v.1.15,2013-03-21 05:40:00,
2013-03-21 01:50:00,44.3,29.1,29.66,North,32767,-999.0,0.0,55,0.00,,,0.00,0,Wunderground v.1.15,2013-03-21 05:50:00,
2013-03-21 01:55:00,44.3,29.6,29.66,North,32767,-999.0,0.0,56,0.00,,,0.00,0,Wunderground v.1.15,2013-03-21 05:55:00,
2013-03-21 02:05:00,44.2,29.9,29.64,North,32767,-999.0,0.0,57,0.00,,,0.00,0,Wunderground v.1.15,2013-03-21 06:05:00,
2013-03-21 02:10:00,43.9,30.1,29.64,North,32767,-999.0,0.0,58,0.00,,,0.00,0,Wunderground v.1.15,2013-03-21 06:10:00,
2013-03-21 02:20:00,43.3,29.5,29.63,North,32767,-999.0,0.0,58,0.00,,,0.00,0,Wunderground v.1.15,2013-03-21 06:20:00,
2013-03-21 02:25:00,43.1,29.7,29.63,North,32767,-999.0,0.0,59,0.00,,,0.00,0,Wunderground v.1.15,2013-03-21 06:25:00,
2013-03-21 02:35:00,42.6,30.1,29.62,North,32767,-999.0,0.0,61,0.00,,,0.00,0,Wunderground v.1.15,2013-03-21 06:35:00,
2013-03-21 02:45:00,42.1,30.0,29.62,North,32767,-999.0,0.0,62,0.00,,,0.00,0,Wunderground v.1.15,2013-03-21 06:45:00,
2013-03-21 02:50:00,41.5,29.8,29.63,North,32767,-999.0,0.0,63,0.00,,,0.00,0,Wunderground v.1.15,2013-03-21 06:50:00,
2013-03-21 02:55:00,41.1,29.8,29.63,North,32767,-999.0,0.0,64,0.00,,,0.00,0,Wunderground v.1.15,2013-03-21 06:55:00,
2013-03-21 03:05:00,40.1,29.6,29.63,North,32767,-999.0,0.0,66,0.00,,,0.00,0,Wunderground v.1.15,2013-03-21 07:05:00,
2013-03-21 03:10:00,39.8,29.4,29.63,North,32767,-999.0,0.0,66,0.00,,,0.00,0,Wunderground v.1.15,2013-03-21 07:10:00,
2013-03-21 03:20:00,39.3,29.6,29.63,North,32767,-999.0,0.0,68,0.00,,,0.00,0,Wunderground v.1.15,2013-03-21 07:20:00,
2013-03-21 03:30:00,38.8,29.8,29.63,North,32767,-999.0,0.0,70,0.00,,,0.00,0,Wunderground v.1.15,2013-03-21 07:30:00,
2013-03-21 03:35:00,38.5,29.9,29.63,North,32767,-999.0,0.0,71,0.00,,,0.00,0,Wunderground v.1.15,2013-03-21 07:35:00,
2013-03-21 03:45:00,38.6,30.4,29.63,North,32767,-999.0,0.0,72,0.00,,,0.00,0,Wunderground v.1.15,2013-03-21 07:45:00,
2013-03-21 03:50:00,38.9,30.6,29.63,North,32767,-999.0,0.0,72,0.00,,,0.00,0,Wunderground v.1.15,2013-03-21 07:50:00,
2013-03-21 04:00:00,39.6,29.9,29.63,North,32767,-999.0,0.0,68,0.00,,,0.00,0,Wunderground v.1.15,2013-03-21 08:00:00,
2013-03-21 04:05:00,39.8,29.4,29.62,North,32767,-999.0,0.0,66,0.00,,,0.00,0,Wunderground v.1.15,2013-03-21 08:05:00,
2013-03-21 04:15:00,40.2,28.2,29.62,North,32767,-999.0,0.0,62,0.00,,,0.00,0,Wunderground v.1.15,2013-03-21 08:15:00,
2013-03-21 04:20:00,40.2,27.8,29.63,North,32767,-999.0,0.0,61,0.00,,,0.00,0,Wunderground v.1.15,2013-03-21 08:20:00,
2013-03-21 04:25:00,40.2,27.8,29.63,North,32767,-999.0,0.0,61,0.00,,,0.00,0,Wunderground v.1.15,2013-03-21 08:25:00,
2013-03-21 04:30:00,40.1,27.7,29.63,North,32767,-999.0,0.0,61,0.00,,,0.00,0,Wunderground v.1.15,2013-03-21 08:30:00,
2013-03-21 04:40:00,39.9,27.5,29.63,North,32767,-999.0,0.0,61,0.00,,,0.00,0,Wunderground v.1.15,2013-03-21 08:40:00,
2013-03-21 04:45:00,39.9,27.1,29.63,North,32767,-999.0,0.0,60,0.00,,,0.00,0,Wunderground v.1.15,2013-03-21 08:45:00,
2013-03-21 04:55:00,39.8,27.0,29.63,North,32767,-999.0,0.0,60,0.00,,,0.00,0,Wunderground v.1.15,2013-03-21 08:55:00,
2013-03-21 05:00:00,39.8,27.0,29.63,North,32767,-999.0,0.0,60,0.00,,,0.00,0,Wunderground v.1.15,2013-03-21 09:00:00,
2013-03-21 05:10:00,39.3,27.0,29.63,North,32767,-999.0,0.0,61,0.00,,,0.00,0,Wunderground v.1.15,2013-03-21 09:10:00,
2013-03-21 05:20:00,39.2,26.9,29.63,North,32767,-999.0,0.0,61,0.00,,,0.00,0,Wunderground v.1.15,2013-03-21 09:20:00,
2013-03-21 05:25:00,39.1,26.8,29.63,North,32767,-999.0,0.0,61,0.00,,,0.00,0,Wunderground v.1.15,2013-03-21 09:25:00,
2013-03-21 05:35:00,38.9,26.6,29.64,North,32767,-999.0,0.0,61,0.00,,,0.00,0,Wunderground v.1.15,2013-03-21 09:35:00,